{"data":{"norad_id":58183,"epoch":"2026-05-25T01:53:03.454944Z","epoch_age_seconds":75063,"freshness":"FRESH","line1":"1 58183U 23167J   26145.07851221  .00000841  00000+0  40086-4 0  9992","line2":"2 58183  43.0020  72.3475 0000928 254.4796 105.5953 15.27571137142666","mean_motion":15.27571137,"eccentricity":9.28e-5,"inclination_deg":43.002,"raan_deg":72.3475,"arg_perigee_deg":254.4796,"mean_anomaly_deg":105.5953,"bstar":4.0086e-5,"rev_number":14266,"period_min":94.267295651319,"perigee_km":482.43891464587,"apogee_km":483.71235571096,"semimajor_km":6861.2126351784,"source":"CELESTRAK","updated_at":"2026-05-25T13:38:18.569915Z"}}